User: anonymous   Login
Location: São Paulo
(23.5507°S, 46.6334°W)
Time: 06:09:04
(UTC-03:00)
Language:

Courier 1B - Orbit

View from above orbital plane
View from above orbital plane
View from above satellite
View from above satellite

Ground track
Ground track

The orbit is defined by the following mean orbital elements,

1 00058U          26050.14941867 +.00000000 +00000-0 +22819-4 0 00005
2 00058  28.3298  18.6745 0164750 310.3584  48.2679 13.46424533    06
Epoch (UTC): 19 February 2026 03:35:09
Eccentricity: 0.0164750
inclination: 28.3298°
perigee height: 962 km
apogee height: 1208 km
right ascension of ascending node: 18.6745°
argument of perigee: 310.3584°
revolutions per day: 13.46424533
mean anomaly at epoch: 48.2679°

The dashed part of the orbit path shows where the satellite is in the earth's shadow,  

DLR